Regional Weather Roundup
Issued by NWS Cleveland, OH

Home | Current Version | Previous Version | Graphics & Text | Print | Product List | Glossary On
Versions: 1 2 3 4 5 6 7 8 9 10 11 12 13 14 15 16 17 18 19 20 21 22 23 24 25 26 27 28 29 30 31 32 33 34 35 36 37 38 39 40 41 42 43 44 45 46 47 48 49 50
000
ASUS41 KCLE 031110
RWRCLE
OHIO REGIONAL WEATHER ROUNDUP
NATIONAL WEATHER SERVICE CLEVELAND, OH
700 AM EDT FRI JUL 03 2015

NOTE: "FAIR" INDICATES FEW OR NO CLOUDS BELOW 12,000 FEET WITH NO
SIGNIFICANT WEATHER AND/OR OBSTRUCTIONS TO VISIBILITY.

OHZ001>008-015>018-024>027-034-035-043-044-031200-
   NORTHWEST OHIO

CITY           SKY/WX    TMP DP  RH WIND       PRES   REMARKS
DEFIANCE       PTCLDY    57  54  89 NE3       29.97S
FINDLAY        PTCLDY    60  55  83 E6        29.96R
TOLEDO EXPRESS PTCLDY    54  53  97 CALM      29.98R
TOLEDO EXEC    PTCLDY    59  54  83 CALM      29.98S
LIMA           MOCLDY    58  56  93 E5        29.96R
$$

OHZ009>014-019>023-028>033-038-089-031200-
   NORTHEAST OHIO

CITY           SKY/WX    TMP DP  RH WIND       PRES   REMARKS
CLE-HOPKINS    MOCLDY    58  53  84 SE5       30.00S
CLE-LAKEFRONT  CLEAR     60  55  83 SE6       29.98R
CUY CO. ARPT   PTCLDY    55  54  94 E7        29.99
LORAIN-ELYRIA  CLEAR     54  54 100 CALM      29.99R FOG
ASHTABULA      SUNNY     52  51  97 E3        30.01S
AKRON-CANTON   MOCLDY    56  51  84 NE6       29.99R
WOOSTER        CLEAR     55  52  89 E3        29.99R
MANSFIELD      PTCLDY    57  52  83 CALM      29.98R
YOUNGSTOWN     MOSUNNY   53  50  89 E6        29.99R
$$

OHZ042-051>053-060>062-070>072-077>081-031200-
  SOUTHWEST OHIO

CITY           SKY/WX    TMP DP  RH WIND       PRES   REMARKS
CINC-COVINGTON LGT RAIN  67  64  90 NE6       29.90R FOG
CINC-LUNKEN    CLOUDY    66  63  90 NE7       29.90R
HAMILTON       CLOUDY    66  60  81 E5        29.92R
DAYTON         CLOUDY    63  56  78 E5        29.94R
WRIGHT-PAT AFB MOCLDY    63  56  76 NE2       29.93R
DAYTON GENERAL CLOUDY    63  57  81 E8        29.92R
WILMINGTON     CLOUDY    62  57  83 NE8       29.92R
$$

OHZ036-037-039>041-045>050-054>059-063>069-073>076-082>088-031200-
  CENTRAL AND SOUTHEAST OHIO

CITY           SKY/WX    TMP DP  RH WIND       PRES   REMARKS
COLUMBUS       CLOUDY    62  54  74 E6        29.94R
OSU AIRPORT    PTCLDY    60  55  83 E5        29.95R
BOLTON FIELD   PTCLDY    61  56  84 NE3       29.95R
RICKENBACK AFB PTCLDY    60  56  87 NE8       29.93S
NEWARK         CLEAR     60  55  83 CALM      29.95S
MARION         PTCLDY    57  54  89 NE3       29.97R
LANCASTER      PTCLDY    61  57  87 E3        29.94S
ZANESVILLE     NOT AVBL
NEW PHILLY     PTCLDY    55  54  96 CALM      29.99R
$$



USA.gov is the U.S. government's official web portal to all federal, state and local government web resources and services.